BEL7WA EBBR-EKCH

Flight info

Callsign BEL7WA
Flight time 1h 10m
Altitude 37000
Route NIK L191 VICOT N873 SPY DCT DOSUR P729 TUDLO
Aircraft A320/M-SDE3FGHIRWY/LB1

Departure

Time 2026-04-30 19:38
Airport Brussels Airport (EBBR)

Arrival

Time 2026-04-30 20:48
Airport Copenhagen Kastrup Airport (EKCH)
Time Latitude Longitude Altitude Speed Heading
2026-04-30 19:14 50.90310 4.48685 117 ft 0 kts 335°
2026-04-30 19:28 50.90310 4.48686 121 ft 1 kts 335°
2026-04-30 19:29 50.90264 4.48718 118 ft 4 kts 341°
2026-04-30 19:29 50.90239 4.48727 120 ft 4 kts 13°
2026-04-30 19:30 50.90227 4.48717 120 ft 0 kts 65°
2026-04-30 19:31 50.90259 4.48829 123 ft 21 kts 65°
2026-04-30 19:32 50.90336 4.49094 124 ft 28 kts 65°
2026-04-30 19:32 50.90409 4.49348 120 ft 20 kts 66°
2026-04-30 19:32 50.90339 4.49427 124 ft 17 kts 193°
2026-04-30 19:32 50.90214 4.49377 125 ft 20 kts 194°
2026-04-30 19:33 50.90079 4.49322 126 ft 20 kts 194°
2026-04-30 19:33 50.89946 4.49268 135 ft 19 kts 194°
2026-04-30 19:33 50.89828 4.49219 142 ft 15 kts 194°
2026-04-30 19:33 50.89748 4.49186 146 ft 11 kts 194°
2026-04-30 19:34 50.89644 4.49148 152 ft 17 kts 176°
2026-04-30 19:34 50.89542 4.49177 158 ft 14 kts 193°
2026-04-30 19:34 50.89387 4.49116 165 ft 16 kts 194°
2026-04-30 19:35 50.89293 4.49077 168 ft 12 kts 194°
2026-04-30 19:35 50.89235 4.49054 173 ft 7 kts 194°
2026-04-30 19:35 50.89185 4.49034 176 ft 7 kts 194°
2026-04-30 19:35 50.89147 4.49036 176 ft 4 kts 147°
2026-04-30 19:36 50.89141 4.49074 176 ft 5 kts 86°
2026-04-30 19:36 50.89148 4.49104 176 ft 0 kts 70°
2026-04-30 19:37 50.89150 4.49111 176 ft 5 kts 69°
2026-04-30 19:37 50.89213 4.49378 176 ft 59 kts 69°
2026-04-30 19:37 50.89342 4.49939 177 ft 103 kts 70°
2026-04-30 19:37 50.89654 4.51293 228 ft 149 kts 71°
2026-04-30 19:38 50.89997 4.52836 815 ft 151 kts 71°
2026-04-30 19:38 50.90421 4.54350 1557 ft 150 kts 71°
2026-04-30 19:38 50.91103 4.55625 2239 ft 163 kts 37°
2026-04-30 19:38 50.92258 4.55935 2816 ft 180 kts 354°
2026-04-30 19:39 50.93373 4.54960 3361 ft 190 kts 316°
2026-04-30 19:39 50.94354 4.53411 3658 ft 210 kts 315°
2026-04-30 19:39 50.95439 4.51679 3895 ft 233 kts 315°
2026-04-30 19:39 50.96645 4.49759 4129 ft 258 kts 315°
2026-04-30 19:40 50.97973 4.47650 4485 ft 282 kts 315°
2026-04-30 19:40 50.99392 4.45405 5155 ft 292 kts 314°
2026-04-30 19:40 51.00840 4.43124 6000 ft 295 kts 315°
2026-04-30 19:40 51.02301 4.40822 6863 ft 297 kts 315°
2026-04-30 19:41 51.03776 4.38505 7676 ft 300 kts 315°
2026-04-30 19:41 51.05266 4.36165 8508 ft 303 kts 316°
2026-04-30 19:41 51.06772 4.33794 9325 ft 306 kts 316°
2026-04-30 19:41 51.08288 4.31405 10144 ft 309 kts 316°
2026-04-30 19:42 51.09836 4.28965 10658 ft 322 kts 316°
2026-04-30 19:42 51.11485 4.26362 10857 ft 346 kts 315°
2026-04-30 19:42 51.13242 4.23578 11077 ft 366 kts 315°
2026-04-30 19:42 51.15067 4.20683 11641 ft 373 kts 315°
2026-04-30 19:43 51.16969 4.17859 12313 ft 377 kts 322°
2026-04-30 19:43 51.19081 4.15343 13002 ft 380 kts 324°
2026-04-30 19:43 51.21216 4.12828 13682 ft 383 kts 324°
2026-04-30 19:44 51.25640 4.07957 14890 ft 389 kts 334°
2026-04-30 19:44 51.28147 4.06327 15459 ft 391 kts 346°
2026-04-30 19:44 51.30832 4.05677 16022 ft 391 kts
2026-04-30 19:44 51.33508 4.06286 16576 ft 390 kts 20°
2026-04-30 19:45 51.36051 4.07806 17152 ft 392 kts 24°
2026-04-30 19:45 51.38594 4.09420 17728 ft 395 kts 24°
2026-04-30 19:45 51.41153 4.11069 18304 ft 398 kts 24°
2026-04-30 19:45 51.43730 4.12736 18834 ft 401 kts 24°
2026-04-30 19:46 51.46330 4.14416 19341 ft 404 kts 24°
2026-04-30 19:46 51.48949 4.16106 19867 ft 407 kts 24°
2026-04-30 19:46 51.51579 4.17806 20392 ft 409 kts 24°
2026-04-30 19:46 51.54226 4.19514 20909 ft 411 kts 24°
2026-04-30 19:47 51.56889 4.21232 21413 ft 414 kts 24°
2026-04-30 19:47 51.58663 4.22377 21739 ft 415 kts 24°
2026-04-30 19:47 51.62264 4.24701 22386 ft 418 kts 24°
2026-04-30 19:47 51.64971 4.26447 22856 ft 421 kts 24°
2026-04-30 19:48 51.67698 4.28208 23309 ft 423 kts 24°
2026-04-30 19:48 51.70438 4.29980 23754 ft 426 kts 24°
2026-04-30 19:48 51.73192 4.31763 24142 ft 428 kts 24°
2026-04-30 19:48 51.75958 4.33560 24496 ft 430 kts 24°
2026-04-30 19:49 51.78737 4.35371 24844 ft 432 kts 24°
2026-04-30 19:49 51.84332 4.39037 25529 ft 436 kts 24°
2026-04-30 19:49 51.87148 4.40883 25853 ft 438 kts 24°
2026-04-30 19:50 51.89976 4.42737 26176 ft 440 kts 24°
2026-04-30 19:50 51.92819 4.44601 26505 ft 442 kts 24°
2026-04-30 19:50 51.95676 4.46476 26833 ft 444 kts 24°
2026-04-30 19:50 51.98508 4.48337 27103 ft 446 kts 24°
2026-04-30 19:51 52.01394 4.50230 27387 ft 448 kts 23°
2026-04-30 19:51 52.04286 4.52132 27706 ft 450 kts 25°
2026-04-30 19:51 52.07191 4.54049 27988 ft 452 kts 24°
2026-04-30 19:51 52.10148 4.56006 28286 ft 453 kts 24°
2026-04-30 19:52 52.13039 4.57921 28544 ft 455 kts 24°
2026-04-30 19:52 52.16016 4.59897 28822 ft 457 kts 24°
2026-04-30 19:52 52.18926 4.61835 29077 ft 459 kts 24°
2026-04-30 19:52 52.21886 4.63809 29311 ft 460 kts 23°
2026-04-30 19:53 52.24890 4.65814 29545 ft 462 kts 24°
2026-04-30 19:53 52.27830 4.67778 29779 ft 463 kts 24°
2026-04-30 19:53 52.30817 4.69771 30043 ft 463 kts 24°
2026-04-30 19:53 52.33798 4.71759 30372 ft 462 kts 24°
2026-04-30 19:54 52.36774 4.73747 30648 ft 462 kts 24°
2026-04-30 19:54 52.39743 4.75739 30925 ft 461 kts 24°
2026-04-30 19:54 52.42711 4.77734 31195 ft 460 kts 24°
2026-04-30 19:54 52.45664 4.79726 31481 ft 459 kts 24°
2026-04-30 19:55 52.48613 4.81718 31759 ft 458 kts 22°
2026-04-30 19:55 52.51524 4.83811 32038 ft 456 kts 30°
2026-04-30 19:55 52.54120 4.86726 32308 ft 451 kts 44°
2026-04-30 19:55 52.56279 4.90450 32561 ft 450 kts 51°
2026-04-30 19:56 52.58352 4.94291 32834 ft 449 kts 50°
2026-04-30 19:56 52.60401 4.98154 33095 ft 448 kts 51°
2026-04-30 19:56 52.62435 5.02035 33423 ft 446 kts 50°
2026-04-30 19:56 52.64454 5.05893 33734 ft 444 kts 50°
2026-04-30 19:57 52.66465 5.09736 34050 ft 442 kts 50°
2026-04-30 19:57 52.68472 5.13574 34320 ft 441 kts 50°
2026-04-30 19:57 52.70471 5.17401 34576 ft 440 kts 50°
2026-04-30 19:57 52.72467 5.21228 34785 ft 440 kts 50°
2026-04-30 19:58 52.74461 5.25053 35021 ft 439 kts 50°
2026-04-30 19:58 52.76455 5.28881 35227 ft 439 kts 50°
2026-04-30 19:58 52.78442 5.32700 35436 ft 439 kts 51°
2026-04-30 19:58 52.80432 5.36528 35624 ft 439 kts 50°
2026-04-30 19:59 52.82417 5.40353 35829 ft 438 kts 51°
2026-04-30 19:59 52.84401 5.44180 36002 ft 438 kts 50°
2026-04-30 19:59 52.88360 5.51840 36361 ft 438 kts 50°
2026-04-30 20:00 52.90338 5.55672 36528 ft 438 kts 50°
2026-04-30 20:00 52.92314 5.59506 36712 ft 437 kts 50°
2026-04-30 20:00 52.94284 5.63331 36928 ft 436 kts 50°
2026-04-30 20:00 52.96249 5.67152 37104 ft 435 kts 50°
2026-04-30 20:01 53.00170 5.74792 37361 ft 436 kts 50°
2026-04-30 20:01 53.04097 5.82475 37376 ft 437 kts 50°
2026-04-30 20:02 53.09971 5.94052 37377 ft 436 kts 51°
2026-04-30 20:03 53.15856 6.05695 37375 ft 439 kts 50°
2026-04-30 20:03 53.19791 6.13480 37379 ft 439 kts 50°
2026-04-30 20:04 53.23691 6.21230 37396 ft 439 kts 50°
2026-04-30 20:05 53.29560 6.32957 37407 ft 438 kts 50°
2026-04-30 20:05 53.35424 6.44713 37414 ft 438 kts 50°
2026-04-30 20:06 53.39316 6.52564 37422 ft 438 kts 50°
2026-04-30 20:06 53.43237 6.60478 37423 ft 438 kts 50°
2026-04-30 20:07 53.47098 6.68301 37421 ft 438 kts 50°
2026-04-30 20:08 53.52934 6.80190 37430 ft 437 kts 50°
2026-04-30 20:08 53.56800 6.88088 37431 ft 437 kts 50°
2026-04-30 20:09 53.60659 6.95994 37426 ft 437 kts 50°
2026-04-30 20:09 53.66451 7.07851 37433 ft 437 kts 50°
2026-04-30 20:10 53.72212 7.19772 37428 ft 437 kts 50°
2026-04-30 20:11 53.77958 7.31712 37430 ft 436 kts 50°
2026-04-30 20:11 53.81772 7.39674 37431 ft 437 kts 50°
2026-04-30 20:12 53.87506 7.51707 37440 ft 437 kts 50°
2026-04-30 20:13 53.91297 7.59679 37453 ft 437 kts 50°
2026-04-30 20:13 53.95115 7.67719 37454 ft 438 kts 50°
2026-04-30 20:14 53.98927 7.75781 37457 ft 437 kts 50°
2026-04-30 20:14 54.02729 7.83856 37458 ft 438 kts 50°
2026-04-30 20:15 54.06528 7.91950 37463 ft 438 kts 50°
2026-04-30 20:15 54.10321 8.00056 37469 ft 438 kts 50°
2026-04-30 20:16 54.14111 8.08197 37474 ft 438 kts 50°
2026-04-30 20:16 54.17891 8.16341 37475 ft 438 kts 50°
2026-04-30 20:17 54.21668 8.24494 37470 ft 437 kts 50°
2026-04-30 20:17 54.25438 8.32647 37449 ft 437 kts 50°
2026-04-30 20:18 54.29200 8.40816 37463 ft 437 kts 50°
2026-04-30 20:18 54.32956 8.49006 37452 ft 437 kts 50°
2026-04-30 20:19 54.36710 8.57212 37464 ft 437 kts 50°
2026-04-30 20:19 54.40456 8.65437 37466 ft 437 kts 50°
2026-04-30 20:20 54.44201 8.73670 37464 ft 437 kts 50°
2026-04-30 20:20 54.47308 8.80526 37455 ft 437 kts 50°
2026-04-30 20:21 54.51041 8.88796 37464 ft 437 kts 50°
2026-04-30 20:21 54.54768 8.97077 37464 ft 438 kts 50°
2026-04-30 20:22 54.58491 9.05390 37459 ft 438 kts 50°
2026-04-30 20:22 54.62212 9.13712 37464 ft 438 kts 50°
2026-04-30 20:23 54.65929 9.22052 37478 ft 438 kts 51°
2026-04-30 20:23 54.69636 9.30416 37472 ft 438 kts 51°
2026-04-30 20:24 54.73336 9.38785 37473 ft 438 kts 51°
2026-04-30 20:24 54.77034 9.47164 37466 ft 438 kts 51°
2026-04-30 20:25 54.82567 9.59758 37464 ft 438 kts 51°
2026-04-30 20:26 54.88089 9.72397 37472 ft 438 kts 51°
2026-04-30 20:26 54.91802 9.80925 35948 ft 444 kts 51°
2026-04-30 20:26 54.93664 9.85219 35100 ft 445 kts 51°
2026-04-30 20:27 54.97405 9.93873 33209 ft 449 kts 51°
2026-04-30 20:27 55.01159 10.02569 31300 ft 449 kts 50°
2026-04-30 20:28 55.04906 10.11297 29396 ft 446 kts 51°
2026-04-30 20:28 55.08535 10.19790 28199 ft 430 kts 51°
2026-04-30 20:29 55.12060 10.28055 26937 ft 419 kts 51°
2026-04-30 20:30 55.17199 10.40148 25122 ft 407 kts 52°
2026-04-30 20:30 55.22176 10.51907 23319 ft 397 kts 52°
2026-04-30 20:31 55.26918 10.63468 21778 ft 384 kts 59°
2026-04-30 20:32 55.29591 10.76508 20373 ft 375 kts 71°
2026-04-30 20:32 55.31076 10.85192 19473 ft 368 kts 71°
2026-04-30 20:33 55.31804 10.89474 19033 ft 365 kts 71°
2026-04-30 20:33 55.33242 10.97944 18088 ft 358 kts 72°
2026-04-30 20:33 55.33946 11.02112 17627 ft 355 kts 72°
2026-04-30 20:34 55.35315 11.10306 16718 ft 349 kts 72°
2026-04-30 20:34 55.36656 11.18442 15782 ft 345 kts 72°
2026-04-30 20:35 55.37320 11.22482 15311 ft 343 kts 72°
2026-04-30 20:35 55.37979 11.26499 14833 ft 341 kts 73°
2026-04-30 20:35 55.39289 11.34487 13848 ft 338 kts 73°
2026-04-30 20:36 55.39938 11.38448 13358 ft 336 kts 73°
2026-04-30 20:36 55.40582 11.42377 12979 ft 330 kts 73°
2026-04-30 20:36 55.41794 11.49854 12722 ft 306 kts 73°
2026-04-30 20:37 55.42364 11.53394 12594 ft 295 kts 73°
2026-04-30 20:37 55.42917 11.56833 12364 ft 289 kts 73°
2026-04-30 20:37 55.43462 11.60216 12116 ft 286 kts 73°
2026-04-30 20:37 55.43932 11.63611 11861 ft 286 kts 81°
2026-04-30 20:38 55.44083 11.67103 11611 ft 286 kts 85°
2026-04-30 20:38 55.44214 11.70641 11076 ft 292 kts 85°
2026-04-30 20:38 55.44350 11.74177 10787 ft 288 kts 84°
2026-04-30 20:39 55.44625 11.81186 10012 ft 286 kts 84°
2026-04-30 20:39 55.44759 11.84665 9613 ft 284 kts 84°
2026-04-30 20:39 55.44889 11.88126 9226 ft 282 kts 84°
2026-04-30 20:40 55.45134 11.94978 8455 ft 278 kts 85°
2026-04-30 20:40 55.45252 11.98365 8066 ft 276 kts 85°
2026-04-30 20:40 55.45370 12.01729 7687 ft 274 kts 85°
2026-04-30 20:41 55.45609 12.08396 6915 ft 270 kts 85°
2026-04-30 20:41 55.45724 12.11688 6508 ft 268 kts 85°
2026-04-30 20:41 55.45836 12.14967 6074 ft 268 kts 85°
2026-04-30 20:41 55.45949 12.18288 5372 ft 277 kts 86°
2026-04-30 20:42 55.46065 12.21734 4615 ft 287 kts 86°
2026-04-30 20:42 55.46184 12.25273 4056 ft 289 kts 85°
2026-04-30 20:42 55.46406 12.32058 3631 ft 267 kts 85°
2026-04-30 20:43 55.46518 12.35242 3492 ft 253 kts 82°
2026-04-30 20:43 55.46818 12.38177 3366 ft 240 kts 76°
2026-04-30 20:43 55.47190 12.40972 3207 ft 230 kts 70°
2026-04-30 20:44 55.49201 12.44984 2657 ft 218 kts 38°
2026-04-30 20:44 55.50336 12.46694 2365 ft 209 kts 38°
2026-04-30 20:44 55.52404 12.49863 1861 ft 184 kts 37°
2026-04-30 20:45 55.54190 12.52609 1365 ft 156 kts 37°
2026-04-30 20:45 55.54971 12.53812 1172 ft 143 kts 37°
2026-04-30 20:45 55.55709 12.54945 980 ft 139 kts 36°
2026-04-30 20:46 55.57880 12.58293 416 ft 139 kts 39°
2026-04-30 20:46 55.58609 12.59411 217 ft 139 kts 38°
2026-04-30 20:47 55.59966 12.61510 19 ft 101 kts 40°
2026-04-30 20:47 55.60383 12.62154 17 ft 68 kts 41°
2026-04-30 20:48 55.61020 12.63138 20 ft 56 kts 41°
2026-04-30 20:48 55.61306 12.63585 20 ft 54 kts 41°
2026-04-30 20:48 55.61553 12.63965 19 ft 36 kts 41°
2026-04-30 20:48 55.61703 12.64089 21 ft 23 kts 354°
2026-04-30 20:49 55.61790 12.64077 17 ft 6 kts 356°
2026-04-30 20:49 55.61825 12.64072 18 ft 5 kts 356°
2026-04-30 20:49 55.61881 12.64079 17 ft 14 kts 19°
2026-04-30 20:50 55.62199 12.64346 15 ft 31 kts 25°
2026-04-30 20:50 55.62389 12.64450 17 ft 23 kts 15°
2026-04-30 20:50 55.62522 12.64410 17 ft 18 kts 300°
2026-04-30 20:50 55.62588 12.64226 17 ft 19 kts 303°
2026-04-30 20:51 55.62662 12.64025 17 ft 20 kts 303°
2026-04-30 20:51 55.62798 12.63990 17 ft 9 kts 40°
2026-04-30 20:51 55.62830 12.64074 17 ft 8 kts 63°
2026-04-30 20:52 55.62833 12.64157 19 ft 6 kts 110°
2026-04-30 20:52 55.62814 12.64211 17 ft 2 kts 123°
2026-04-30 20:52 55.62810 12.64220 19 ft 0 kts 123°